Terminal Aerodrome Forecast
Issued by NWS Memphis, TN

Home | Current Version | Previous Version | Text Only | Print | Product List | Glossary On
Versions: 1 2 3 4 5 6 7 8 9 10 11 12 13 14 15 16 17 18 19 20 21 22 23 24 25 26 27 28 29 30 31 32 33 34 35 36 37 38 39 40 41 42 43 44 45 46 47 48 49 50
000
FTUS44 KMEG 202054 AAA
TAFMEM
TAF AMD
KMEM 202054Z 2021/2124 27009KT P6SM SCT045
     FM210100 VRB05KT P6SM FEW250
     FM211200 18008KT P6SM SCT015 SCT150
     FM211600 19011G17KT P6SM VCSH SCT040 BKN100=

USA.gov is the U.S. government's official web portal to all federal, state and local government web resources and services.